Location: Waco, TX
(31.5480°N, 97.1670°W)
Time: 22:54:24
(UTC-05:00)

ISS - Pass Details

Date: 26 April 2018
Orbit: 403 x 406 km, 51.6° (Epoch: 23 April)

Event Time Altitude Azimuth Distance (km) Brightness Sun altitude
Rises 15:15:00 0° 318° (NW) 2,321 0.1 59.4°
Reaches altitude 10° 15:17:06 10° 322° (NW) 1,459 -0.8 59.0°
Maximum altitude 15:20:20 63° 44° (NE) 455 -3.0 58.4°
Drops below altitude 10° 15:23:34 10° 126° (SE) 1,453 -1.0 57.8°
Sets 15:25:39 0° 130° (SE) 2,310 -0.1 57.4°
